Temperature
18 17 18 18 18 18 17 17 17 17 17 17 17 17 17 17 17 17 17 17 17 17 17 17 17 17 17 17 17 17 17 17 17 17 16 16 16 16 16 16 16 16 16
17 17 17 17 17 17 17 17 17 17 17 17 17 17 17 17 17 17 17 17 17 17 17 17 17 17 17 17 17 17 17 17 17 17 17 16 16 16 16 16 16 16 16
17 17 17 17 17 17 17 17 17 17 17 17 17 17 17 17 17 17 17 17 17 17 17 17 17 17 17 17 17 17 16 16 16 16 16 16 16 16 16 16 16 16 16
17 17 17 17 17 17 17 17 17 17 17 17 17 17 17 17 17 17 17 17 17 16 16 16 16 16 16 16 16 16 16 16 16 16 16 16 16 16 16 16 16 16 16
17 17 17 17 17 17 16 16 17 16 16 17 17 17 17 17 17 16 16 16 16 16 16 16 16 16 16 16 16 16 16 16 16 16 16 16 16 16 16 16 16 16 16
17 17 17 16 16 16 16 16 16 16 16 16 16 16 16 16 16 16 16 16 16 16 16 16 16 16 16 16 16 16 16 16 16 16 16 16 16 16 16 16 16 16 16
17 17 16 16 16 16 16 16 16 16 16 16 16 16 16 16 16 16 16 16 16 16 16 16 16 16 16 15 15 15 15 15 15 15 15 15 15 15 15 15 15 15 15
17 16 16 16 16 16 16 16 16 16 16 16 16 16 16 16 16 16 16 16 16 16 16 16 16 16 15 15 15 15 15 15 15 15 15 15 15 15 15 15 15 15 15
16 16 16 16 16 16 16 16 16 15 16 16 16 16 16 16 16 16 16 16 16 16 16 16 15 15 15 15 15 15 15 15 15 15 15 15 15 15 15 15 15 15 15
16 16 16 16 16 15 15 15 15 15 15 15 15 15 16 16 16 16 16 16 16 16 16 16 15 15 15 15 15 15 15 15 15 15 14 14 15 15 15 15 15 15 15
16 16 16 16 16 15 15 15 15 15 15 15 15 15 15 15 15 15 15 15 15 15 15 15 15 15 15 15 15 15 14 14 14 14 14 14 14 14 14 14 14 15 15
16 16 16 16 15 15 15 15 15 15 15 15 15 15 15 15 15 15 15 15 15 15 15 15 15 15 15 15 14 14 14 14 14 14 14 14 14 14 14 14 14 14 14
16 16 16 15 15 15 15 15 15 15 15 15 15 14 14 14 14 15 15 15 15 15 15 15 15 15 14 14 14 14 14 14 14 14 14 14 14 14 14 14 14 14 14
16 16 16 16 15 15 15 15 15 14 14 14 14 14 14 14 14 14 14 14 14 14 14 14 14 14 14 14 14 14 13 13 13 13 13 13 13 13 13 13 14 14 14
16 16 16 16 15 15 15 15 14 14 14 14 14 14 14 14 14 14 14 14 14 14 14 14 14 14 14 13 13 13 13 13 13 13 13 13 13 13 13 13 13 13 14
16 16 16 15 15 15 15 15 14 14 14 14 14 14 14 14 14 14 13 13 13 13 13 13 13 13 13 13 13 13 13 13 13 13 13 13 13 12 13 13 13 13 13
16 16 16 15 15 15 15 15 14 14 14 14 14 14 14 14 13 13 13 13 13 13 13 13 13 13 13 13 13 13 13 13 13 13 12 12 12 12 12 12 12 12 13
16 16 16 15 15 15 15 15 15 14 14 14 14 14 14 13 13 13 13 13 13 13 13 13 13 13 13 13 13 13 13 13 12 12 12 12 12 12 12 12 12 12 12
16 16 16 16 15 15 15 15 15 14 14 14 14 14 14 14 13 13 13 13 13 13 13 12 13 13 13 13 12 12 12 12 12 12 12 12 12 12 12 12 12 12 12
16 16 16 16 15 15 15 15 15 14 14 14 14 14 14 14 14 14 13 13 13 13 13 12 12 13 13 13 12 12 12 12 12 12 12 12 12 12 12 12 12 12 12
16 16 16 16 16 15 15 15 15 15 14 14 14 14 14 14 14 14 13 13 13 13 13 12 12 12 12 12 12 12 12 12 12 12 12 12 12 12 12 12 12 12 12
16 16 16 16 16 16 15 15 15 15 15 15 14 14 14 14 14 14 14 13 13 13 13 13 12 12 12 12 12 12 12 11 12 12 12 12 12 12 12 12 12 12 12
16 16 16 16 16 16 15 15 15 15 14 14 14 14 14 14 14 14 14 13 13 13 13 13 12 13 12 12 12 12 11 11 11 12 11 11 12 12 12 12 12 12 12
16 16 16 16 16 16 15 15 15 14 14 14 14 14 14 14 14 14 14 13 13 13 13 13 13 13 12 12 12 11 11 11 11 12 11 11 12 12 12 12 12 12 11
16 16 16 16 15 15 15 15 15 14 14 14 14 14 14 14 14 14 13 13 13 13 13 13 13 12 12 12 12 11 11 11 11 11 11 11 11 11 12 12 12 12 11
16 16 16 16 15 15 15 15 14 14 14 14 14 14 14 14 14 13 13 13 13 13 13 13 12 12 12 12 12 11 11 11 11 11 11 11 11 11 11 11 12 12 11
Wind_Speed
5 6 5 6 6 5 5 3 2 1 2 2 3 4 5 6 8 10 10 14 15 15 15 14 14 14 14 14 13 13 13 13 12 12 12 12 12 11 12 11 11 11 10
8 5 4 4 4 5 5 4 2 2 1 1 1 2 3 5 7 9 10 12 15 15 15 14 14 14 14 14 14 13 13 13 13 14 13 13 12 12 12 12 12 12 11
11 8 4 3 4 5 5 4 3 2 1 1 1 0 1 3 6 8 10 11 12 14 14 14 14 14 14 14 14 14 14 14 14 15 14 14 14 14 13 13 13 13 12
13 9 4 4 5 6 4 3 2 2 1 1 1 1 0 1 4 6 8 9 10 10 12 14 13 13 13 13 13 14 14 14 15 15 15 15 15 15 15 14 14 14 14
12 9 5 5 7 5 3 2 2 2 1 1 1 0 1 0 1 3 5 7 8 9 9 10 12 12 12 12 12 13 14 14 15 15 16 16 16 16 16 16 16 16 15
11 9 6 5 6 4 3 2 2 2 1 0 1 2 2 1 1 1 2 3 4 6 7 7 8 9 11 11 11 12 12 13 14 15 15 16 16 16 17 17 18 17 17
10 8 5 5 5 4 4 3 2 2 2 1 3 3 4 3 1 0 1 2 2 4 5 6 6 5 5 7 8 9 10 11 11 12 13 15 16 16 17 17 18 19 19
10 8 6 5 5 4 4 3 3 2 1 2 3 3 3 4 4 2 1 1 1 2 3 4 5 4 3 3 4 6 7 8 9 10 10 11 13 15 16 17 17 18 19
9 9 8 6 5 4 4 4 3 4 2 2 2 4 3 2 2 4 3 1 1 1 1 2 3 3 4 4 4 4 4 5 6 6 7 8 10 12 13 15 16 18 19
9 10 9 7 5 4 5 4 4 3 3 1 2 2 2 4 3 1 3 3 2 1 0 1 2 3 4 5 4 4 4 3 4 5 5 6 8 9 11 13 14 15 16
7 9 9 7 6 4 5 5 4 4 3 3 2 1 2 3 2 3 0 4 4 3 1 1 2 2 4 5 5 5 5 4 3 3 4 4 4 5 7 9 11 13 14
3 6 8 7 6 5 5 4 5 5 4 3 3 2 3 2 2 3 2 1 2 3 3 2 1 3 4 6 6 6 6 5 5 5 5 5 5 6 7 8 10 12 13
3 5 5 5 5 5 5 5 5 5 4 4 3 2 2 2 3 3 3 1 1 3 3 3 2 2 4 7 7 7 7 6 6 6 7 7 7 8 9 10 10 11 12
5 6 6 6 6 6 6 5 4 4 4 4 3 3 2 1 2 3 3 3 1 3 3 4 3 2 2 5 7 7 7 8 8 9 10 11 11 11 12 12 12 12 13
6 7 7 7 6 6 6 6 4 4 4 4 3 3 2 1 1 2 3 4 4 1 2 3 3 3 3 4 6 7 8 10 11 12 13 14 15 15 15 14 14 14 14
7 8 8 7 7 6 6 5 4 4 5 4 3 3 2 2 1 1 2 2 3 4 3 3 3 3 3 4 7 8 10 12 13 14 15 17 18 18 18 17 17 17 16
9 10 9 8 8 7 6 6 5 5 6 5 4 4 4 3 2 2 1 2 2 3 3 4 3 3 3 4 6 9 11 11 13 15 16 17 18 19 19 19 19 18 18
9 10 9 9 8 8 7 7 7 6 7 6 6 5 5 4 4 3 3 3 2 3 4 4 3 3 4 4 5 5 7 9 10 13 15 15 16 17 18 18 19 19 19
9 9 9 9 8 8 8 8 7 7 7 7 7 7 7 6 5 4 4 4 3 3 3 3 4 3 3 3 3 4 4 4 8 10 11 12 13 14 16 17 18 19 19
10 9 9 9 9 8 8 8 8 7 7 7 7 8 8 7 7 7 6 6 5 4 3 3 4 4 4 4 2 3 4 3 4 7 9 10 11 12 14 15 17 18 20
10 9 8 8 8 8 9 9 8 9 8 7 7 7 8 9 11 9 6 6 6 4 4 4 4 3 4 4 4 3 4 4 5 4 4 5 6 8 12 15 16 18 19
9 9 9 9 9 9 12 14 11 8 8 8 8 8 8 9 11 13 13 12 10 8 7 5 5 6 7 6 5 4 4 4 5 4 2 5 4 6 8 13 17 19 20
10 10 10 10 10 11 14 14 15 10 8 8 9 8 8 8 9 8 10 13 13 15 13 9 8 9 8 7 5 6 6 6 7 5 2 6 5 7 9 15 19 21 22
10 10 10 10 9 11 15 15 15 10 8 9 9 9 9 9 8 8 8 8 9 10 12 11 10 11 11 9 8 8 8 7 7 6 4 6 6 7 8 11 18 20 21
8 8 8 9 10 10 13 14 12 6 7 9 9 9 9 9 12 12 8 9 10 10 14 18 19 18 19 19 13 5 5 5 7 6 5 5 6 6 6 7 13 18 18
9 9 8 9 9 9 10 12 12 6 7 8 7 8 11 12 12 11 8 8 11 12 9 8 10 14 14 16 17 11 9 8 7 6 6 6 5 4 5 5 6 9 11
Wind_Direction
154 153 153 152 153 151 145 140 132 115 80 77 102 114 130 152 166 171 189 195 193 191 189 190 193 193 190 189 190 190 189 187 184 181 179 178 176 175 175 172 170 168 166
153 149 147 147 148 155 155 149 144 139 119 86 63 106 141 158 173 180 189 197 198 198 198 199 202 202 200 199 199 200 199 196 193 191 190 188 187 187 186 184 181 180 178
153 148 147 148 155 155 143 120 101 94 87 67 12 338 160 171 177 182 187 196 204 207 208 209 210 210 209 208 207 208 208 204 200 198 198 198 197 196 195 195 193 191 190
154 148 147 153 155 144 131 119 101 90 67 63 344 313 289 189 187 189 190 199 206 211 216 218 218 216 217 217 216 214 215 212 208 205 206 206 206 204 203 203 202 200 199
153 150 151 155 146 130 127 137 94 108 100 55 294 315 329 265 212 193 192 198 205 210 215 221 225 225 226 224 224 222 220 217 214 214 213 213 213 211 211 210 210 208 207
153 147 147 149 140 124 122 115 97 78 109 120 2 16 340 316 252 186 190 174 179 198 207 210 221 230 231 229 229 228 226 222 221 222 221 220 219 217 217 216 215 215 214
153 148 141 136 134 134 143 134 109 71 37 52 60 17 356 2 10 228 160 139 135 148 172 191 197 211 232 235 236 235 235 232 229 228 227 226 226 223 223 222 221 220 219
151 149 140 136 134 127 117 106 99 91 26 61 106 84 23 357 349 359 17 139 137 134 147 170 185 201 217 219 230 233 233 237 238 234 230 230 231 230 229 229 229 228 226
148 147 142 134 130 128 132 128 118 117 95 23 91 134 132 206 307 337 348 6 41 96 156 168 172 190 195 194 203 216 223 232 239 242 242 241 242 240 237 235 234 235 234
142 144 142 134 131 129 136 140 123 125 124 91 29 57 136 154 140 348 336 342 349 18 277 167 174 182 179 183 189 194 196 213 235 246 250 252 252 253 250 246 243 241 240
141 144 143 135 134 134 139 134 125 125 126 134 120 85 68 64 88 129 273 323 337 323 302 260 220 208 190 183 183 187 192 208 232 246 252 258 264 269 268 264 259 252 248
141 144 141 139 143 143 148 148 141 137 132 122 116 113 124 119 130 130 155 266 303 306 314 304 263 228 202 190 189 192 200 213 232 244 252 260 265 271 275 276 271 265 260
165 170 152 149 151 154 155 149 145 145 142 133 135 130 132 150 157 144 136 160 315 311 330 327 292 237 201 196 204 205 213 222 234 244 251 259 268 274 277 278 278 278 272
179 170 158 157 160 161 157 147 146 156 147 144 143 141 134 140 141 148 152 143 75 339 337 314 319 303 237 216 223 220 230 241 249 254 256 259 264 269 272 275 274 275 276
176 168 163 161 163 159 155 145 149 163 155 157 155 150 146 156 132 139 142 147 146 163 290 294 311 315 299 249 240 232 242 254 258 260 262 265 267 267 268 269 270 271 273
171 166 167 165 167 167 163 157 159 171 167 178 174 164 172 179 152 137 139 141 147 161 216 264 263 275 286 280 261 248 255 263 265 267 268 269 270 270 269 267 266 267 268
170 171 173 172 175 177 175 171 178 177 181 193 193 189 204 195 187 190 162 152 160 158 202 269 266 278 283 286 290 277 274 270 271 273 274 276 274 273 271 268 265 264 265
173 173 173 176 183 186 183 183 192 188 191 201 207 201 214 206 204 207 194 199 201 189 188 245 278 281 273 274 273 279 282 279 274 277 279 281 281 281 277 271 267 265 266
172 174 174 182 189 190 190 195 196 197 200 206 207 205 212 202 214 216 212 215 222 212 189 212 259 266 273 280 293 295 293 293 292 288 288 289 291 290 284 277 272 269 267
177 181 184 187 191 193 195 199 199 205 209 213 212 209 209 203 209 212 215 218 218 220 217 224 253 269 273 283 281 284 299 294 290 294 293 295 299 300 294 287 283 277 272
187 186 187 194 198 198 205 203 203 207 210 218 223 220 218 214 212 209 211 211 208 215 221 229 247 264 270 275 263 252 265 283 283 265 279 288 295 297 295 292 287 280 275
190 188 195 200 206 214 215 209 203 209 211 215 224 229 231 228 229 226 224 215 203 206 214 221 235 241 254 250 250 246 252 276 287 268 249 275 273 277 279 279 277 275 273
194 196 202 205 212 219 217 214 212 207 211 217 221 226 237 235 228 231 237 236 229 224 215 213 226 237 242 239 236 250 244 240 250 247 238 274 270 271 274 276 275 276 275
200 202 207 208 213 222 218 217 216 211 217 223 223 221 227 238 236 227 234 243 244 242 235 228 229 239 239 236 226 235 244 254 261 257 211 256 269 266 273 273 275 274 275
201 205 206 209 216 227 221 220 215 212 224 232 233 230 227 235 243 236 232 244 256 260 253 240 236 240 243 244 236 231 244 248 268 268 212 221 259 265 267 266 269 270 271
206 207 210 211 214 226 226 218 208 212 229 240 244 243 237 237 244 241 232 238 252 259 259 259 247 250 250 253 246 228 230 238 249 263 234 210 245 249 279 266 258 261 266
Height
1559 1561 1562 1563 1565 1566 1567 1569 1570 1571 1572 1572 1573 1573 1574 1574 1575 1576 1576 1577 1578 1579 1579 1580 1580 1581 1582 1582 1583 1584 1585 1585 1586 1587 1588 1589 1590 1591 1591 1592 1593 1594 1595
1558 1560 1562 1563 1564 1565 1567 1568 1569 1570 1570 1571 1572 1573 1573 1574 1574 1575 1576 1576 1577 1578 1579 1579 1580 1580 1581 1582 1582 1583 1584 1585 1586 1587 1587 1588 1589 1590 1591 1592 1593 1594 1595
1558 1559 1561 1562 1563 1565 1566 1567 1568 1569 1570 1570 1571 1572 1572 1573 1573 1574 1575 1576 1576 1577 1577 1578 1579 1579 1580 1581 1581 1582 1583 1584 1585 1586 1587 1588 1589 1589 1590 1591 1592 1593 1594
1557 1558 1560 1561 1562 1564 1565 1566 1567 1568 1568 1569 1570 1571 1571 1572 1573 1573 1574 1575 1575 1576 1576 1577 1577 1578 1578 1579 1580 1580 1581 1582 1583 1584 1585 1586 1587 1588 1589 1590 1591 1592 1593
1555 1557 1558 1560 1561 1562 1564 1565 1566 1567 1568 1568 1569 1570 1571 1571 1572 1573 1573 1574 1574 1575 1575 1576 1576 1576 1577 1577 1578 1578 1579 1580 1581 1582 1583 1584 1585 1586 1588 1589 1590 1590 1591
1554 1556 1557 1559 1560 1561 1563 1564 1565 1566 1567 1568 1568 1569 1570 1571 1571 1572 1573 1573 1573 1574 1574 1574 1575 1575 1575 1576 1576 1576 1577 1578 1579 1580 1581 1582 1583 1584 1585 1586 1587 1588 1589
1553 1555 1556 1558 1559 1560 1562 1563 1564 1565 1566 1566 1567 1568 1569 1570 1570 1571 1572 1572 1573 1573 1573 1573 1574 1574 1574 1574 1574 1574 1575 1576 1577 1577 1578 1579 1580 1581 1582 1583 1584 1585 1587
1552 1553 1555 1556 1558 1559 1561 1562 1563 1564 1565 1565 1566 1567 1568 1570 1570 1571 1571 1572 1572 1572 1572 1572 1572 1572 1572 1573 1573 1573 1573 1573 1574 1574 1575 1576 1577 1578 1579 1580 1581 1582 1584
1550 1552 1554 1555 1556 1558 1559 1561 1562 1563 1564 1564 1565 1567 1567 1568 1569 1570 1570 1571 1571 1571 1571 1571 1571 1571 1571 1571 1571 1571 1571 1571 1571 1572 1572 1573 1573 1574 1575 1576 1577 1578 1580
1549 1551 1552 1554 1555 1557 1558 1559 1560 1561 1562 1563 1564 1565 1566 1567 1568 1569 1570 1570 1570 1570 1570 1570 1570 1569 1569 1569 1569 1569 1569 1569 1569 1569 1569 1570 1570 1571 1571 1572 1573 1574 1575
1548 1550 1551 1553 1554 1555 1556 1557 1559 1560 1561 1562 1563 1564 1565 1565 1566 1567 1568 1568 1569 1569 1569 1569 1568 1568 1568 1568 1568 1568 1568 1567 1567 1567 1567 1567 1567 1567 1567 1568 1569 1569 1570
1547 1549 1550 1551 1553 1554 1555 1556 1557 1558 1559 1561 1561 1562 1563 1564 1565 1565 1566 1567 1567 1567 1567 1567 1567 1567 1566 1566 1566 1566 1566 1565 1565 1564 1564 1563 1563 1563 1563 1564 1564 1565 1566
1545 1547 1549 1550 1551 1552 1553 1554 1555 1557 1558 1559 1560 1561 1562 1563 1563 1564 1565 1565 1565 1566 1566 1566 1565 1565 1565 1565 1565 1564 1564 1563 1563 1562 1561 1560 1560 1559 1559 1560 1560 1560 1561
1544 1546 1547 1549 1550 1551 1552 1553 1554 1555 1557 1558 1559 1560 1561 1561 1562 1562 1563 1563 1563 1564 1564 1564 1564 1564 1564 1563 1563 1562 1562 1561 1560 1559 1558 1557 1556 1556 1555 1555 1555 1556 1556
1543 1545 1546 1548 1549 1550 1551 1552 1553 1554 1555 1556 1557 1558 1559 1560 1560 1561 1561 1562 1563 1562 1562 1562 1562 1562 1562 1561 1561 1560 1560 1559 1557 1556 1555 1554 1553 1552 1552 1551 1551 1551 1551
1541 1543 1545 1546 1548 1549 1550 1551 1552 1553 1554 1555 1556 1556 1557 1558 1559 1559 1559 1560 1560 1560 1560 1560 1560 1560 1559 1559 1558 1557 1557 1556 1554 1553 1552 1550 1550 1549 1548 1547 1547 1546 1546
1539 1541 1543 1545 1546 1547 1548 1549 1550 1551 1552 1553 1554 1554 1555 1556 1556 1557 1557 1557 1558 1558 1557 1557 1557 1557 1556 1556 1555 1554 1553 1552 1551 1550 1548 1547 1546 1545 1544 1543 1543 1542 1541
1537 1539 1541 1542 1544 1545 1546 1547 1548 1549 1550 1551 1552 1552 1553 1553 1554 1554 1555 1555 1555 1555 1555 1554 1554 1554 1553 1552 1551 1550 1549 1548 1547 1546 1545 1543 1542 1541 1540 1539 1538 1538 1537
1534 1536 1538 1539 1541 1542 1544 1545 1546 1547 1548 1548 1549 1550 1550 1551 1551 1552 1552 1552 1552 1552 1551 1551 1550 1550 1549 1548 1547 1546 1545 1544 1543 1542 1541 1539 1538 1537 1536 1535 1534 1533 1532
1531 1533 1535 1536 1538 1539 1541 1542 1543 1544 1545 1546 1546 1547 1547 1547 1548 1548 1548 1548 1549 1548 1548 1547 1546 1546 1545 1544 1543 1542 1541 1540 1539 1538 1536 1535 1533 1532 1531 1530 1529 1528 1527
1528 1530 1532 1533 1535 1536 1537 1538 1540 1541 1541 1542 1543 1544 1544 1544 1544 1545 1545 1545 1545 1544 1544 1543 1542 1541 1541 1540 1539 1538 1536 1534 1533 1532 1530 1529 1528 1526 1525 1524 1523 1522 1521
1525 1526 1528 1529 1531 1532 1534 1535 1536 1537 1538 1539 1539 1540 1540 1540 1540 1540 1540 1540 1540 1540 1539 1539 1538 1537 1536 1536 1535 1533 1531 1529 1527 1527 1525 1523 1522 1520 1519 1518 1517 1516 1515
1520 1522 1523 1525 1526 1528 1530 1531 1532 1533 1534 1534 1535 1535 1535 1535 1536 1536 1536 1536 1535 1535 1535 1534 1532 1531 1531 1531 1530 1528 1526 1524 1522 1521 1520 1516 1516 1513 1513 1511 1510 1509 1508
1515 1517 1518 1520 1522 1523 1525 1526 1528 1528 1528 1529 1530 1530 1530 1530 1530 1531 1530 1530 1529 1529 1529 1528 1527 1526 1526 1525 1524 1522 1521 1518 1516 1515 1514 1510 1509 1507 1506 1505 1504 1503 1502
1510 1511 1513 1515 1517 1518 1520 1521 1523 1523 1523 1523 1524 1525 1525 1525 1525 1525 1524 1523 1523 1522 1523 1522 1521 1520 1519 1519 1518 1516 1514 1512 1509 1508 1508 1505 1502 1501 1499 1498 1497 1496 1495
1505 1507 1508 1510 1511 1513 1515 1516 1517 1517 1517 1518 1518 1519 1519 1519 1519 1518 1517 1516 1515 1515 1515 1514 1513 1512 1511 1511 1510 1509 1507 1505 1502 1500 1500 1499 1496 1495 1491 1490 1490 1489 1488